Regional Weather Roundup
Issued by NWS

Home | Current Version | Previous Version | Text Only | Print | Product List | Glossary On
Versions: 1 2 3 4 5 6 7 8 9 10 11 12 13 14 15 16 17 18 19 20 21 22 23 24 25 26 27 28 29 30 31 32 33 34 35 36 37 38 39 40 41 42 43 44 45 46 47 48 49 50
000
ASUS44 KFWD 030715
RWRTX
NORTH TEXAS HOURLY WEATHER ROUNDUP
NATIONAL WEATHER SERVICE FORT WORTH TX
200 AM CDT WED SEP 03 2014

NOTE: "FAIR" INDICATES FEW OR NO CLOUDS BELOW 12,000 FEET WITH NO
SIGNIFICANT WEATHER AND/OR OBSTRUCTIONS TO VISIBILITY.

TXZ118-119-030800-
DALLAS/FORT WORTH METROPLEX

CITY           SKY/WX    TMP DP  RH WIND       PRES   REMARKS
DFW AIRPORT    CLEAR     82  72  71 S18       29.93S
DALLAS LOVE    PTCLDY    80  73  79 S13       29.93F
FTW MEACHAM    CLEAR     82  72  71 S14G24    29.92S
DAL-EXECUTIVE  CLEAR     81  73  76 S7        29.94S
FTW-ALLIANCE   CLEAR     80  72  76 S13G22    29.91F
FTW-NAS-JRB    CLEAR     84  70  62 S15       29.96S
FTW-SPINKS     CLEAR     80  72  76 S7        29.95S
ARLINGTON      CLEAR     80  72  76 SE10      29.94S
GRAND PRAIRIE  CLEAR     80  71  74 SE9       29.95S
ADDISON        CLEAR     81  72  75 S9        29.96S
MESQUITE       CLEAR     77  73  87 S8        29.95S
LANCASTER      CLEAR     76  72  85 SE3       29.95S
$$

TXZ091>094-102>105-117-120-121-131>134-030800-
NORTH CENTRAL TEXAS

CITY           SKY/WX    TMP DP  RH WIND       PRES   REMARKS
SHRMAN/DENISON CLEAR     79  71  76 SE12G17   29.95S
GAINESVILLE    CLEAR     78  72  80 SE9       29.95S
BOWIE          CLEAR     79  70  74 SE8       29.92S
BRIDGEPORT     CLEAR     81  68  65 S9        29.93S
DECATUR        CLEAR     79  69  70 SE10      29.93F
DENTON         CLEAR     81  71  71 S12       29.93S
MCKINNEY       CLEAR     79  73  82 S9        29.95S
GREENVILLE     CLEAR     77  72  83 S9        29.96S
ROCKWALL       CLEAR     78  74  86 S9        29.94S
TERRELL        CLEAR     80  76  87 S13       29.95S
WAXAHACHIE     CLEAR     78  71  78 SE7       29.96S
GRANBURY       CLEAR     84  70  63 S12       29.94R
$$

TXZ083>090-098>101-113>116-127>130-139>142-154-155-030800-
WESTERN NORTH TEXAS

CITY           SKY/WX    TMP DP  RH WIND       PRES   REMARKS
WICHITA FALLS  CLEAR     82  68  62 S13       29.89S
WF-KICKAPOO    CLEAR     82  67  60 S9        29.90F
VERNON         CLEAR     81  63  54 SE8       29.89F
ABILENE        PTCLDY    83  67  58 S15       29.93F
ABILENE-DYESS  PTCLDY    81  68  63 S12       29.92F
BRECKENRIDGE   CLEAR     84  67  55 S10G18    29.91S
GRAHAM         CLEAR     83  68  60 SE8       29.89S
MINERAL WELLS  CLEAR     80  70  71 SE10      29.91S
STEPHENVILLE   CLEAR     80  68  67 S8        29.97S
COMANCHE         N/A     79  67  66 S8        29.95F
BROWNWOOD      CLOUDY    81  68  65 MISG      29.95S
COLEMAN        CLEAR     81  66  61 S9        29.96R
BRADY          CLEAR     79  68  69 SE10      29.97S
$$

TXZ143>147-156>162-174-175-030800-
CENTRAL TEXAS

CITY           SKY/WX    TMP DP  RH WIND       PRES   REMARKS
WACO           CLEAR     81  71  71 S14       29.94F
WACO-MCGREGOR  CLEAR     81  68  65 S13G18    29.96S
HILLSBORO      CLEAR     79  70  73 SE10      29.95S
CORSICANA      CLEAR     79  73  82 S10       29.96F
MEXIA          CLEAR     76  73  91 SE5       29.96S
HEARNE           N/A     78  74  87 SE6       29.97S
CAMERON        CLEAR     78  73  83 SE5       29.96S
TEMPLE         CLEAR     79  68  69 S10       29.95S
KILLEEN        CLEAR     79  72  78 S14       29.96S
KILLEEN-SKYLRK CLEAR     79  68  69 S10       29.97S
FORT HOOD      CLEAR     81  71  71 SE9       29.96S
GATESVILLE     CLEAR     81  72  74 S6        29.97S
HAMILTON       CLEAR     80  70  71 S13G23    29.97S
LAMPASAS       CLEAR     78  73  84 S7        29.96F
$$

TXZ095>097-106>112-122>126-135>138-148>153-164>167-030800-
EAST TEXAS

CITY           SKY/WX    TMP DP  RH WIND       PRES   REMARKS
PARIS          CLEAR     73  66  78 SE7       29.97S
SULPHUR SPRNGS CLEAR     77  73  86 S5        29.98S
MOUNT PLEASANT CLEAR     73  72  97 CALM      29.99S
GILMER         CLEAR     75  75 100 S3        29.99S
MINEOLA        CLEAR     79  75  89 S5        29.97S
TYLER          PTCLDY    79  74  84 S10       29.97S
LONGVIEW       PTCLDY    75  73  93 E3        29.97S
MARSHALL       CLOUDY    78  76  92 S6        30.00S
ATHENS         PTCLDY    77  73  88 S7        29.96S
PALESTINE      PTCLDY    76  75  96 SE5       29.98S
JACKSONVILLE   CLEAR     76  75  94 S8        30.00S
HENDERSON      PTCLDY    76  75  97 S3        29.98F
NACOGDOCHES    PTCLDY    73  73 100 SE6       29.98F
LUFKIN         PTCLDY    77  74  90 CALM      29.97F
$$

SUPPLEMENTAL OBSERVATIONS (CENTRAL)

CITY           SKY/WX    TMP DP  RH WIND       PRES   REMARKS
LAKE TEXOMA      N/A     79  72  78 SE7         N/A
CADDO GRASSLND   N/A     75  70  83 S5          N/A
PAT MAYSE LAKE   N/A     75  72  88 E3          N/A
GREENVILLE       N/A     75  72  88 S6          N/A
CEDAR HILL       N/A     79  72  78 SE9         N/A
MCGREGOR         N/A     79  70  73 S13         N/A
$$

SUPPLEMENTAL OBSERVATIONS (WEST)

CITY           SKY/WX    TMP DP  RH WIND       PRES   REMARKS
MILLERS CREEK    N/A     82  64  54 S9          N/A
LBJ GRASSLAND    N/A     81  70  69 SE8         N/A
GRANBURY         N/A     82  68  61 S12         N/A
HAMBY            N/A     82  66  57 S16         N/A
$$

SUPPLEMENTAL OBSERVATIONS (EAST)

CITY           SKY/WX    TMP DP  RH WIND       PRES   REMARKS
CLARKSVILLE      N/A     73  70  88 E1          N/A
TEXARKANA        N/A     72  70  94 CALM        N/A
LINDEN           N/A     73  72  94 S1          N/A
CADDO LAKE       N/A     73  72  94 SE1         N/A
GILMER           N/A     73  70  88 S1          N/A
HENDERSON        N/A     75  72  88 S8          N/A
LUFKIN           N/A     75  73  94 MISG        N/A
$$

SUPPLEMENTAL OBSERVATIONS ARE A COLLECTION OF AUTOMATED INSTRUMENTS
THAT ARE MAINTAINED BY A VARIETY OF FEDERAL AND STATE AGENCIES.
CERTAIN ELEMENTS...SUCH AS HUMIDITY VALUES AND SUSTAINED WIND
SPEEDS...MAY BE APPROXIMATED.




USA.gov is the U.S. government's official web portal to all federal, state and local government web resources and services.